Home   Weather   Turku   Past weeks

Flag for Finland Past Weather in Turku, Finland — Yesterday and Last 2 Weeks

36 °F

Mostly cloudy.

Feels Like: 33 °F
Forecast: 38 / 47 °F
Wind: 3 mph from West

Location: Turku Airport

Current Time: Oct 26, 2016 at 6:17:29 PM

Latest Report: Oct 26, 2016 at 5:20 PM

Visibility: N/A

Pressure: 30.18 "Hg

Humidity: 65%

Dew Point: 25 °F

Location of TurkuLocation

Past Weather in Turku — Graph


Turku Temperature Yesterday

Maximum temperature yesterday: 39 °F (at 12:20 AM)
Minimum temperature yesterday: 34 °F (at 5:50 PM)
Average temperature yesterday: 36 °F

High & Low Weather Summary for the Past Weeks

High48 °F (Oct 19, 12:50 PM)100% (Oct 14, 7:20 AM)30.66 "Hg (Oct 14, 7:20 AM)
Low25 °F (Oct 20, 8:20 AM)60% (Oct 21, 2:50 PM)30.12 "Hg (Oct 25, 11:50 PM)
Average38 °F81%30.46 "Hg
* Reported Oct 11 4:20 PM — Oct 26 4:50 PM, Turku, Weather by CustomWeather, © 2016

Note: Actual official high and low records may vary slightly from our data, if they occured in-between our weather recording intervals... More about our weather records


Turku Weather History for the Previous 24 Hours

Scroll right to see more
Time TempWeatherWind HumidityBarometerVisibility
4:50 PM
Wed, Oct 26
36 °FOvercast.5 mph60%30.18 "HgN/A
4:20 PM36 °FOvercast.5 mph60%30.18 "HgN/A
3:50 PM36 °FMostly cloudy.6 mph60%30.18 "HgN/A
3:20 PM36 °FMostly cloudy.6 mph65%30.18 "HgN/A
2:50 PM36 °FMore clouds than sun.7 mph65%30.18 "HgN/A
2:20 PM36 °FOvercast.8 mph65%30.18 "HgN/A
1:50 PM34 °FOvercast.8 mph70%30.15 "HgN/A
1:20 PM34 °FMore clouds than sun.8 mph70%30.15 "HgN/A
12:50 PM34 °FOvercast.6 mph70%30.15 "HgN/A
12:20 PM34 °FOvercast.7 mph65%30.15 "HgN/A
11:50 AM36 °FPartly sunny.8 mph60%30.15 "HgN/A
11:20 AM34 °FPassing clouds.6 mph70%30.15 "HgN/A
10:50 AM32 °FPassing clouds.5 mph75%30.15 "HgN/A
10:20 AM30 °FSunny.7 mph86%30.15 "Hg10 mi
9:50 AM30 °FPartly sunny.5 mph86%30.15 "HgN/A
9:20 AM30 °FOvercast.5 mph86%30.15 "HgN/A
8:50 AM30 °FOvercast.5 mph86%30.15 "HgN/A
8:20 AM30 °FOvercast.6 mph86%30.15 "HgN/A
7:50 AM30 °FOvercast.6 mph86%30.12 "HgN/A
7:20 AM28 °FOvercast.5 mph93%30.12 "HgN/A
6:50 AM30 °FPassing clouds.6 mph86%30.12 "HgN/A
6:20 AM30 °FPassing clouds.3 mph86%30.12 "HgN/A
5:50 AM32 °FOvercast.5 mph87%30.12 "HgN/A
5:20 AM32 °FOvercast.6 mph80%30.12 "HgN/A
4:50 AM32 °FOvercast.8 mph80%30.12 "HgN/A
4:20 AM32 °FMostly cloudy.5 mph87%30.12 "HgN/A
3:50 AM34 °FOvercast.5 mph87%30.12 "HgN/A
3:20 AM34 °FOvercast.5 mph87%30.12 "HgN/A
2:50 AM34 °FMostly cloudy.3 mph87%30.12 "HgN/A
2:20 AM34 °FMostly cloudy.5 mph87%30.12 "HgN/A
1:50 AM34 °FOvercast.6 mph81%30.12 "HgN/A
1:20 AM32 °FLight snow. Overcast.6 mph87%30.12 "HgN/A
12:50 AM32 °FMostly cloudy.5 mph93%30.12 "HgN/A
12:20 AM34 °FOvercast.5 mph87%30.12 "HgN/A
11:50 PM
Tue, Oct 25
34 °FMostly cloudy.6 mph87%30.12 "HgN/A
11:20 PM34 °FMostly cloudy.6 mph87%30.15 "HgN/A
10:50 PM34 °FMostly cloudy.6 mph87%30.15 "HgN/A
10:20 PM34 °FOvercast.7 mph87%30.15 "HgN/A
9:50 PM34 °FOvercast.6 mph87%30.15 "HgN/A
9:20 PM34 °FOvercast.5 mph87%30.15 "HgN/A
8:50 PM34 °FLight rain. Overcast.6 mph87%30.15 "HgN/A
8:20 PM34 °FLight rain. Mostly cloudy.8 mph87%30.15 "HgN/A
7:50 PM34 °FLight snow. Overcast.7 mph87%30.15 "HgN/A
7:20 PM34 °FLight snow. Overcast.7 mph93%30.15 "HgN/A
6:50 PM34 °FLight rain. Overcast.7 mph93%30.15 "HgN/A
6:20 PM34 °FLight rain. Overcast.7 mph93%30.15 "HgN/A
Weather by CustomWeather, © 2016

See weather overviewHow to use our weather pages